IBE14N SANT-SGAS

Flight info

Callsign IBE14N
Flight time 1h 12m
Altitude 23000
Route BITIS3E BITIS Z120 BUPLA/N0457F370 UZ120 SIS UL531 SAMGU SAMGU
Aircraft A320/M-SDE3FGHIRWY/LB1

Departure

Time 2026-04-20 11:21
Airport Teniente Benjamín Matienzo International Airport (SANT)

Arrival

Time 2026-04-20 12:34
Airport Silvio Pettirossi International Airport (SGAS)
Time Latitude Longitude Altitude Speed Heading
2026-04-20 11:12 -26.83535 -65.10745 1485 ft 0 kts 281°
2026-04-20 11:16 -26.83536 -65.10739 1484 ft 2 kts 285°
2026-04-20 11:16 -26.83544 -65.10721 1454 ft 3 kts 322°
2026-04-20 11:16 -26.83554 -65.10714 1478 ft 2 kts 320°
2026-04-20 11:17 -26.83557 -65.10710 1475 ft 1 kts 318°
2026-04-20 11:19 -26.83534 -65.10716 1470 ft 2 kts
2026-04-20 11:19 -26.83489 -65.10675 1478 ft 13 kts 42°
2026-04-20 11:19 -26.83373 -65.10573 1485 ft 31 kts 41°
2026-04-20 11:19 -26.83198 -65.10402 1493 ft 32 kts 38°
2026-04-20 11:20 -26.83027 -65.10284 1497 ft 25 kts 20°
2026-04-20 11:20 -26.82874 -65.10279 1499 ft 16 kts 354°
2026-04-20 11:20 -26.82861 -65.10249 1499 ft 13 kts 181°
2026-04-20 11:20 -26.82885 -65.10252 1499 ft 12 kts 188°
2026-04-20 11:21 -26.83212 -65.10313 1493 ft 81 kts 191°
2026-04-20 11:21 -26.83971 -65.10455 1466 ft 138 kts 189°
2026-04-20 11:21 -26.85053 -65.10671 1622 ft 173 kts 191°
2026-04-20 11:21 -26.86279 -65.10736 2276 ft 178 kts 170°
2026-04-20 11:22 -26.87475 -65.10363 3079 ft 178 kts 159°
2026-04-20 11:22 -26.88616 -65.09733 3661 ft 189 kts 148°
2026-04-20 11:22 -26.89700 -65.08797 4115 ft 205 kts 137°
2026-04-20 11:22 -26.90645 -65.07526 4543 ft 222 kts 123°
2026-04-20 11:23 -26.91335 -65.05895 5033 ft 241 kts 108°
2026-04-20 11:23 -26.91557 -65.04845 5354 ft 251 kts 99°
2026-04-20 11:23 -26.91595 -65.03080 5873 ft 267 kts 84°
2026-04-20 11:24 -26.91096 -65.01024 6568 ft 279 kts 68°
2026-04-20 11:24 -26.90385 -64.98976 7346 ft 284 kts 72°
2026-04-20 11:24 -26.89821 -64.96841 8162 ft 288 kts 76°
2026-04-20 11:24 -26.89417 -64.94626 8984 ft 292 kts 81°
2026-04-20 11:25 -26.89189 -64.92349 9804 ft 296 kts 86°
2026-04-20 11:25 -26.89147 -64.90027 10498 ft 301 kts 91°
2026-04-20 11:25 -26.89298 -64.87626 10942 ft 317 kts 96°
2026-04-20 11:25 -26.89558 -64.85109 11302 ft 334 kts 97°
2026-04-20 11:26 -26.89739 -64.83371 11516 ft 345 kts 97°
2026-04-20 11:26 -26.90122 -64.79688 11901 ft 367 kts 96°
2026-04-20 11:26 -26.90423 -64.76784 12169 ft 382 kts 96°
2026-04-20 11:26 -26.90731 -64.73789 12615 ft 391 kts 96°
2026-04-20 11:27 -26.91041 -64.70744 13137 ft 396 kts 96°
2026-04-20 11:27 -26.91352 -64.67654 13658 ft 402 kts 96°
2026-04-20 11:27 -26.91671 -64.64516 14123 ft 408 kts 96°
2026-04-20 11:27 -26.91996 -64.61348 14621 ft 412 kts 96°
2026-04-20 11:28 -26.92325 -64.58147 15154 ft 415 kts 96°
2026-04-20 11:28 -26.92656 -64.54923 15693 ft 418 kts 96°
2026-04-20 11:28 -26.92986 -64.51668 16231 ft 422 kts 96°
2026-04-20 11:28 -26.93316 -64.48387 16771 ft 426 kts 96°
2026-04-20 11:29 -26.93644 -64.45119 17320 ft 429 kts 95°
2026-04-20 11:29 -26.93978 -64.41783 17869 ft 433 kts 95°
2026-04-20 11:29 -26.94312 -64.38401 18390 ft 438 kts 95°
2026-04-20 11:29 -26.94650 -64.35002 18890 ft 441 kts 95°
2026-04-20 11:30 -26.94991 -64.31568 19394 ft 445 kts 95°
2026-04-20 11:30 -26.95336 -64.28108 19901 ft 448 kts 95°
2026-04-20 11:30 -26.95683 -64.24625 20397 ft 452 kts 95°
2026-04-20 11:30 -26.96033 -64.21112 20884 ft 455 kts 94°
2026-04-20 11:31 -26.96382 -64.17571 21344 ft 459 kts 94°
2026-04-20 11:31 -26.96732 -64.14006 21819 ft 462 kts 94°
2026-04-20 11:31 -26.97083 -64.10411 22263 ft 466 kts 94°
2026-04-20 11:31 -26.97441 -64.06788 22698 ft 469 kts 94°
2026-04-20 11:32 -26.97836 -64.03143 22883 ft 473 kts 95°
2026-04-20 11:32 -26.98269 -63.99444 22924 ft 485 kts 95°
2026-04-20 11:32 -26.98726 -63.95649 22916 ft 496 kts 95°
2026-04-20 11:32 -26.99188 -63.91792 22918 ft 501 kts 95°
2026-04-20 11:33 -26.99648 -63.87920 22916 ft 501 kts 95°
2026-04-20 11:33 -27.00101 -63.84045 22918 ft 501 kts 95°
2026-04-20 11:33 -27.00545 -63.80170 22919 ft 502 kts 95°
2026-04-20 11:33 -27.00983 -63.76282 22918 ft 502 kts 95°
2026-04-20 11:34 -27.01420 -63.72400 22916 ft 503 kts 95°
2026-04-20 11:34 -27.01855 -63.68558 22917 ft 503 kts 95°
2026-04-20 11:34 -27.02296 -63.64664 22920 ft 504 kts 95°
2026-04-20 11:34 -27.02735 -63.60769 22919 ft 504 kts 95°
2026-04-20 11:35 -27.03175 -63.56863 22916 ft 505 kts 95°
2026-04-20 11:35 -27.03613 -63.52960 22920 ft 505 kts 95°
2026-04-20 11:35 -27.04047 -63.49052 22920 ft 505 kts 95°
2026-04-20 11:35 -27.04480 -63.45145 22916 ft 505 kts 95°
2026-04-20 11:36 -27.04914 -63.41230 22917 ft 505 kts 95°
2026-04-20 11:36 -27.05348 -63.37318 22916 ft 505 kts 95°
2026-04-20 11:36 -27.05782 -63.33410 22910 ft 506 kts 95°
2026-04-20 11:36 -27.06218 -63.29493 22914 ft 506 kts 95°
2026-04-20 11:37 -27.06653 -63.25574 22914 ft 507 kts 95°
2026-04-20 11:37 -27.07508 -63.17731 22923 ft 506 kts 95°
2026-04-20 11:37 -27.07932 -63.13813 22920 ft 506 kts 95°
2026-04-20 11:38 -27.08355 -63.09898 22919 ft 506 kts 95°
2026-04-20 11:38 -27.08777 -63.05982 22916 ft 506 kts 95°
2026-04-20 11:38 -27.09203 -63.02061 22914 ft 506 kts 95°
2026-04-20 11:38 -27.09632 -62.98138 22917 ft 506 kts 95°
2026-04-20 11:39 -27.10060 -62.94224 22911 ft 506 kts 95°
2026-04-20 11:39 -27.10487 -62.90300 22911 ft 506 kts 95°
2026-04-20 11:39 -27.10910 -62.86379 22909 ft 506 kts 95°
2026-04-20 11:39 -27.11327 -62.82459 22910 ft 506 kts 95°
2026-04-20 11:40 -27.11743 -62.78537 22905 ft 507 kts 95°
2026-04-20 11:40 -27.12159 -62.74606 22905 ft 506 kts 95°
2026-04-20 11:40 -27.12573 -62.70680 22903 ft 507 kts 95°
2026-04-20 11:40 -27.12988 -62.66753 22907 ft 507 kts 95°
2026-04-20 11:41 -27.13405 -62.62824 22908 ft 507 kts 95°
2026-04-20 11:41 -27.13820 -62.58901 22906 ft 507 kts 95°
2026-04-20 11:41 -27.14228 -62.55019 22905 ft 507 kts 95°
2026-04-20 11:41 -27.14640 -62.51091 22903 ft 507 kts 95°
2026-04-20 11:42 -27.15047 -62.47163 22907 ft 506 kts 95°
2026-04-20 11:42 -27.15456 -62.43243 22909 ft 506 kts 95°
2026-04-20 11:42 -27.15868 -62.39315 22909 ft 506 kts 95°
2026-04-20 11:42 -27.16278 -62.35392 22912 ft 506 kts 95°
2026-04-20 11:43 -27.16683 -62.31475 22909 ft 506 kts 95°
2026-04-20 11:43 -27.17086 -62.27540 22909 ft 506 kts 95°
2026-04-20 11:43 -27.17484 -62.23612 22911 ft 506 kts 95°
2026-04-20 11:43 -27.17882 -62.19690 22913 ft 506 kts 95°
2026-04-20 11:44 -27.18280 -62.15766 22916 ft 505 kts 95°
2026-04-20 11:44 -27.18678 -62.11851 22920 ft 505 kts 95°
2026-04-20 11:44 -27.19077 -62.07928 22922 ft 505 kts 95°
2026-04-20 11:44 -27.19476 -62.04013 22919 ft 505 kts 95°
2026-04-20 11:45 -27.19875 -62.00098 22916 ft 505 kts 95°
2026-04-20 11:45 -27.20271 -61.96184 22918 ft 504 kts 95°
2026-04-20 11:45 -27.20662 -61.92273 22917 ft 504 kts 95°
2026-04-20 11:45 -27.21054 -61.88361 22913 ft 504 kts 95°
2026-04-20 11:46 -27.21445 -61.84453 22911 ft 503 kts 95°
2026-04-20 11:46 -27.21835 -61.80554 22914 ft 503 kts 95°
2026-04-20 11:46 -27.22224 -61.76603 23018 ft 511 kts 95°
2026-04-20 11:46 -27.22616 -61.72613 23150 ft 517 kts 95°
2026-04-20 11:47 -27.23013 -61.68576 23276 ft 522 kts 95°
2026-04-20 11:47 -27.23403 -61.64510 23442 ft 525 kts 94°
2026-04-20 11:47 -27.23753 -61.60418 23618 ft 527 kts 93°
2026-04-20 11:47 -27.24063 -61.56320 23815 ft 527 kts 93°
2026-04-20 11:48 -27.24351 -61.52220 24092 ft 525 kts 92°
2026-04-20 11:48 -27.24632 -61.48191 24375 ft 524 kts 92°
2026-04-20 11:48 -27.24923 -61.44122 24670 ft 522 kts 93°
2026-04-20 11:48 -27.25224 -61.40060 24964 ft 521 kts 93°
2026-04-20 11:49 -27.25529 -61.36000 25262 ft 520 kts 93°
2026-04-20 11:49 -27.25836 -61.31959 25562 ft 519 kts 93°
2026-04-20 11:49 -27.26147 -61.27919 25875 ft 518 kts 93°
2026-04-20 11:49 -27.26454 -61.23893 26190 ft 517 kts 93°
2026-04-20 11:50 -27.26759 -61.19869 26511 ft 516 kts 93°
2026-04-20 11:50 -27.27058 -61.15864 26837 ft 515 kts 93°
2026-04-20 11:50 -27.27353 -61.11855 27173 ft 514 kts 93°
2026-04-20 11:50 -27.27644 -61.07851 27512 ft 513 kts 93°
2026-04-20 11:51 -27.27932 -61.03866 27862 ft 512 kts 93°
2026-04-20 11:51 -27.28248 -60.99884 28215 ft 511 kts 94°
2026-04-20 11:51 -27.28603 -60.95916 28581 ft 510 kts 94°
2026-04-20 11:51 -27.28986 -60.91954 28946 ft 509 kts 95°
2026-04-20 11:52 -27.29373 -60.87998 29316 ft 508 kts 95°
2026-04-20 11:52 -27.29753 -60.84055 29692 ft 507 kts 94°
2026-04-20 11:52 -27.30122 -60.80114 30052 ft 507 kts 94°
2026-04-20 11:52 -27.30480 -60.76179 30368 ft 506 kts 94°
2026-04-20 11:53 -27.30830 -60.72244 30696 ft 505 kts 94°
2026-04-20 11:53 -27.31175 -60.68319 31020 ft 504 kts 94°
2026-04-20 11:53 -27.31517 -60.64402 31357 ft 503 kts 94°
2026-04-20 11:53 -27.31860 -60.60482 31687 ft 503 kts 94°
2026-04-20 11:54 -27.32201 -60.56582 32027 ft 502 kts 94°
2026-04-20 11:54 -27.32545 -60.52678 32387 ft 501 kts 94°
2026-04-20 11:54 -27.32890 -60.48789 32737 ft 500 kts 94°
2026-04-20 11:54 -27.33119 -60.46211 32977 ft 499 kts 94°
2026-04-20 11:55 -27.33460 -60.42332 33330 ft 498 kts 94°
2026-04-20 11:55 -27.33799 -60.38456 33701 ft 497 kts 94°
2026-04-20 11:55 -27.34135 -60.34591 34050 ft 497 kts 94°
2026-04-20 11:55 -27.34573 -60.29475 34487 ft 495 kts 94°
2026-04-20 11:56 -27.34900 -60.25627 34817 ft 494 kts 94°
2026-04-20 11:56 -27.35227 -60.21779 35154 ft 493 kts 94°
2026-04-20 11:56 -27.35447 -60.19189 35372 ft 493 kts 94°
2026-04-20 11:56 -27.35777 -60.15357 35695 ft 492 kts 94°
2026-04-20 11:57 -27.36107 -60.11532 36009 ft 491 kts 94°
2026-04-20 11:57 -27.36436 -60.07710 36324 ft 490 kts 94°
2026-04-20 11:57 -27.36754 -60.03945 36620 ft 489 kts 94°
2026-04-20 11:57 -27.37078 -60.00085 36869 ft 489 kts 94°
2026-04-20 11:58 -27.37712 -59.92524 36925 ft 488 kts 94°
2026-04-20 11:58 -27.38353 -59.84920 36925 ft 488 kts 94°
2026-04-20 11:59 -27.38984 -59.77312 36929 ft 489 kts 94°
2026-04-20 11:59 -27.39606 -59.69694 36929 ft 489 kts 94°
2026-04-20 12:00 -27.40222 -59.62068 36932 ft 490 kts 94°
2026-04-20 12:00 -27.40845 -59.54427 36937 ft 491 kts 94°
2026-04-20 12:01 -27.41465 -59.46770 36935 ft 492 kts 94°
2026-04-20 12:01 -27.42073 -59.39099 36956 ft 493 kts 94°
2026-04-20 12:02 -27.42683 -59.31414 36980 ft 494 kts 94°
2026-04-20 12:02 -27.43294 -59.23706 37003 ft 495 kts 94°
2026-04-20 12:03 -27.43901 -59.15976 37031 ft 497 kts 94°
2026-04-20 12:03 -27.44216 -59.08216 37033 ft 495 kts 83°
2026-04-20 12:04 -27.42731 -59.00725 37026 ft 489 kts 64°
2026-04-20 12:04 -27.40025 -58.93716 37013 ft 489 kts 63°
2026-04-20 12:05 -27.37314 -58.86739 36924 ft 490 kts 63°
2026-04-20 12:05 -27.34581 -58.79709 36919 ft 491 kts 63°
2026-04-20 12:06 -27.31833 -58.72657 36922 ft 493 kts 63°
2026-04-20 12:06 -27.29074 -58.65593 36925 ft 494 kts 63°
2026-04-20 12:07 -27.26293 -58.58517 36925 ft 496 kts 63°
2026-04-20 12:07 -27.23499 -58.51418 36934 ft 497 kts 63°
2026-04-20 12:08 -27.20703 -58.44303 36934 ft 498 kts 64°
2026-04-20 12:08 -27.17931 -58.37153 36927 ft 500 kts 64°
2026-04-20 12:09 -27.15160 -58.29959 36927 ft 503 kts 64°
2026-04-20 12:09 -27.12364 -58.22737 36920 ft 506 kts 64°
2026-04-20 12:10 -27.09548 -58.15489 36798 ft 506 kts 64°
2026-04-20 12:10 -27.08143 -58.11880 36553 ft 505 kts 64°
2026-04-20 12:10 -27.06735 -58.08264 36307 ft 507 kts 64°
2026-04-20 12:11 -27.05317 -58.04637 36067 ft 508 kts 64°
2026-04-20 12:11 -27.03899 -58.01012 35827 ft 509 kts 64°
2026-04-20 12:11 -27.02494 -57.97421 35586 ft 510 kts 64°
2026-04-20 12:11 -27.01070 -57.93779 35354 ft 511 kts 64°
2026-04-20 12:12 -26.99641 -57.90124 35130 ft 512 kts 64°
2026-04-20 12:12 -26.98212 -57.86470 34893 ft 513 kts 64°
2026-04-20 12:12 -26.96775 -57.82803 34662 ft 514 kts 64°
2026-04-20 12:12 -26.95334 -57.79137 34432 ft 514 kts 64°
2026-04-20 12:13 -26.93905 -57.75497 34201 ft 505 kts 64°
2026-04-20 12:13 -26.92504 -57.71926 33974 ft 496 kts 64°
2026-04-20 12:13 -26.91129 -57.68425 33713 ft 487 kts 64°
2026-04-20 12:13 -26.89756 -57.64991 33459 ft 478 kts 60°
2026-04-20 12:14 -26.88025 -57.61861 33198 ft 469 kts 48°
2026-04-20 12:14 -26.85844 -57.59200 32945 ft 460 kts 36°
2026-04-20 12:14 -26.83319 -57.57059 32692 ft 450 kts 25°
2026-04-20 12:14 -26.80572 -57.55487 32448 ft 439 kts 15°
2026-04-20 12:15 -26.77690 -57.54494 32195 ft 429 kts
2026-04-20 12:15 -26.74771 -57.54063 31916 ft 419 kts 356°
2026-04-20 12:15 -26.71843 -57.53985 31154 ft 423 kts 354°
2026-04-20 12:15 -26.68925 -57.53945 30845 ft 416 kts 354°
2026-04-20 12:16 -26.66039 -57.53917 30449 ft 413 kts 354°
2026-04-20 12:16 -26.63176 -57.53896 30058 ft 410 kts 354°
2026-04-20 12:16 -26.60332 -57.53876 29619 ft 407 kts 354°
2026-04-20 12:16 -26.57505 -57.53852 29203 ft 404 kts 355°
2026-04-20 12:17 -26.54704 -57.53824 28806 ft 401 kts 355°
2026-04-20 12:17 -26.51960 -57.53791 28430 ft 398 kts 355°
2026-04-20 12:17 -26.49165 -57.53757 28058 ft 395 kts 355°
2026-04-20 12:17 -26.46472 -57.53727 27706 ft 392 kts 355°
2026-04-20 12:18 -26.43759 -57.53699 27368 ft 388 kts 355°
2026-04-20 12:18 -26.41066 -57.53673 27031 ft 385 kts 355°
2026-04-20 12:18 -26.38394 -57.53646 26693 ft 382 kts 355°
2026-04-20 12:18 -26.35747 -57.53618 26349 ft 379 kts 355°
2026-04-20 12:19 -26.33121 -57.53590 26012 ft 376 kts 355°
2026-04-20 12:19 -26.30517 -57.53564 25664 ft 373 kts 355°
2026-04-20 12:19 -26.27938 -57.53538 25329 ft 369 kts 355°
2026-04-20 12:19 -26.25380 -57.53513 24993 ft 366 kts 355°
2026-04-20 12:20 -26.22842 -57.53488 24645 ft 363 kts 355°
2026-04-20 12:20 -26.20326 -57.53464 24295 ft 360 kts 355°
2026-04-20 12:20 -26.17833 -57.53440 23955 ft 357 kts 355°
2026-04-20 12:20 -26.15360 -57.53414 23606 ft 354 kts 355°
2026-04-20 12:21 -26.12908 -57.53387 23203 ft 351 kts 355°
2026-04-20 12:21 -26.10476 -57.53360 22780 ft 348 kts 355°
2026-04-20 12:21 -26.08064 -57.53357 22372 ft 344 kts 352°
2026-04-20 12:21 -26.05696 -57.53584 21957 ft 340 kts 350°
2026-04-20 12:22 -26.03349 -57.53828 21552 ft 337 kts 351°
2026-04-20 12:22 -26.01020 -57.54073 21156 ft 335 kts 351°
2026-04-20 12:22 -25.98711 -57.54316 20756 ft 332 kts 351°
2026-04-20 12:22 -25.96415 -57.54557 20354 ft 330 kts 351°
2026-04-20 12:23 -25.94126 -57.54798 19773 ft 334 kts 352°
2026-04-20 12:23 -25.91812 -57.55042 19429 ft 330 kts 352°
2026-04-20 12:23 -25.89546 -57.55277 19163 ft 324 kts 352°
2026-04-20 12:23 -25.87311 -57.55508 18810 ft 321 kts 352°
2026-04-20 12:24 -25.85101 -57.55736 18335 ft 316 kts 352°
2026-04-20 12:24 -25.82950 -57.55958 17626 ft 313 kts 353°
2026-04-20 12:24 -25.80794 -57.56181 16898 ft 310 kts 353°
2026-04-20 12:24 -25.78659 -57.56404 16203 ft 307 kts 353°
2026-04-20 12:25 -25.76542 -57.56627 15517 ft 304 kts 353°
2026-04-20 12:25 -25.74447 -57.56846 14857 ft 301 kts 353°
2026-04-20 12:25 -25.72367 -57.57062 14213 ft 298 kts 353°
2026-04-20 12:25 -25.70325 -57.57451 13309 ft 301 kts 341°
2026-04-20 12:26 -25.68343 -57.58288 12246 ft 309 kts 338°
2026-04-20 12:26 -25.66347 -57.59205 11639 ft 318 kts 338°
2026-04-20 12:26 -25.64209 -57.60187 11151 ft 339 kts 340°
2026-04-20 12:26 -25.61987 -57.60748 10676 ft 319 kts 355°
2026-04-20 12:27 -25.59826 -57.60646 10210 ft 305 kts
2026-04-20 12:27 -25.57812 -57.60168 9978 ft 285 kts 11°
2026-04-20 12:27 -25.55957 -57.59711 9928 ft 262 kts 11°
2026-04-20 12:27 -25.54245 -57.59291 9797 ft 243 kts 10°
2026-04-20 12:28 -25.52647 -57.58903 9540 ft 231 kts 11°
2026-04-20 12:28 -25.51092 -57.58522 9029 ft 223 kts 10°
2026-04-20 12:28 -25.49600 -57.58153 8433 ft 216 kts 10°
2026-04-20 12:28 -25.48162 -57.57799 7868 ft 206 kts 10°
2026-04-20 12:29 -25.46775 -57.57466 7168 ft 204 kts 10°
2026-04-20 12:29 -25.45388 -57.57130 6500 ft 204 kts 10°
2026-04-20 12:29 -25.44019 -57.56796 5870 ft 202 kts 10°
2026-04-20 12:29 -25.42645 -57.56461 5287 ft 199 kts 11°
2026-04-20 12:30 -25.41321 -57.56138 4714 ft 195 kts
2026-04-20 12:30 -25.40009 -57.55819 4172 ft 192 kts 10°
2026-04-20 12:30 -25.38710 -57.55503 3664 ft 190 kts 10°
2026-04-20 12:30 -25.37431 -57.55189 3255 ft 187 kts 11°
2026-04-20 12:31 -25.36165 -57.54880 2767 ft 186 kts 11°
2026-04-20 12:31 -25.34908 -57.54575 2283 ft 181 kts 11°
2026-04-20 12:31 -25.33729 -57.54281 1963 ft 165 kts 11°
2026-04-20 12:31 -25.32691 -57.54030 1733 ft 142 kts 12°
2026-04-20 12:32 -25.31807 -57.53814 1541 ft 120 kts 11°
2026-04-20 12:32 -25.31016 -57.53625 1386 ft 116 kts 13°
2026-04-20 12:32 -25.30218 -57.53429 1232 ft 119 kts 10°
2026-04-20 12:32 -25.29386 -57.53226 1076 ft 123 kts 12°
2026-04-20 12:33 -25.28544 -57.53021 915 ft 122 kts 12°
2026-04-20 12:33 -25.27692 -57.52815 743 ft 130 kts 13°
2026-04-20 12:33 -25.26814 -57.52603 571 ft 130 kts 13°
2026-04-20 12:33 -25.26009 -57.52407 413 ft 130 kts 13°
2026-04-20 12:34 -25.25176 -57.52207 297 ft 120 kts 13°
2026-04-20 12:34 -25.24644 -57.52077 289 ft 36 kts 13°
2026-04-20 12:34 -25.24413 -57.52021 286 ft 34 kts 14°
2026-04-20 12:34 -25.24266 -57.51923 284 ft 23 kts 100°
2026-04-20 12:35 -25.24314 -57.51648 282 ft 31 kts 98°
2026-04-20 12:35 -25.24332 -57.51450 287 ft 17 kts 69°
2026-04-20 12:35 -25.24288 -57.51423 281 ft 0 kts